Presque Isle, ME

1:59 PM EDT on March 30, 2017 (GMT -0400)
Northern Maine Regional At Presque Isle

Weather History for KPQI - April, 2014

Change the Weather History Date:

Sunday, April 6, 2014

  Actual Average Record
Temperature  
Mean Temperature 36 °F -  
Max Temperature 42 °F 43 °F 57 °F (1962)
Min Temperature 30 °F 26 °F -13 °F (2015)
Degree Days  
Heating Degree Days 29    
Moisture  
Dew Point 21 °F    
Average Humidity 58    
Maximum Humidity 81    
Minimum Humidity 36    
Precipitation  
Precipitation 0.02 in - - ()
Sea Level Pressure  
Sea Level Pressure 29.80 in    
Wind  
Wind Speed 13 mph (West)    
Max Wind Speed 24 mph    
Max Gust Speed 32 mph    
Visibility 9 miles    
Events      
Averages and records for this station are not official NWS values.
T = Trace of Precipitation, MM = Missing Value Source: NWS Daily Summary

Daily Weather History Graph

Daily Weather History Graph

Search for Another Location

Airport or City:

Trip Planner

Search our weather history database for the weather conditions in past years. The results will help you decide how hot, cold, wet, or windy it might be!

Date:

Astronomy

Apr. 06, 2014 Rise Set
Actual Time 6:01 AM EDT 7:08 PM EDT
Civil Twilight 5:30 AM EDT 7:39 PM EDT
Nautical Twilight 4:53 AM EDT 8:16 PM EDT
Astronomical Twilight 4:14 AM EDT 8:55 PM EDT
Moon 10:47 AM EDT (4/6) 1:13 AM EDT (4/6)
Length of Visible Light 14h 08m
Length of Day
13h 06m
Waxing Crescent, 43% of the Moon is Illuminated
Apr 6
Waxing Crescent
Apr 7
First Quarter
Apr 15
Full
Apr 22
Last Quarter
Apr 29
New

Hourly Weather History & Observations

Time (EDT) Temp. Windchill Dew Point Humidity Pressure Visibility Wind Dir Wind Speed Gust Speed Precip Events Conditions
12:15 AM 33.8 °F 27.7 °F 28.4 °F 81% 29.58 in 7.0 mi SW 6.9 mph - N/A   Mostly Cloudy
12:35 AM 33.8 °F 27.0 °F 28.4 °F 81% 29.57 in 5.0 mi WSW 8.1 mph - N/A   Overcast
12:55 AM 33.8 °F 27.0 °F 28.4 °F 81% 29.57 in 6.0 mi WSW 8.1 mph - N/A   Overcast
1:15 AM 33.8 °F 27.7 °F 28.4 °F 81% 29.57 in 4.0 mi WSW 6.9 mph - 0.01 in   Overcast
1:35 AM 33.8 °F 27.0 °F 28.4 °F 81% 29.57 in 4.0 mi WSW 8.1 mph - 0.01 in   Overcast
1:55 AM 33.8 °F 26.4 °F 28.4 °F 81% 29.57 in 3.0 mi West 9.2 mph - 0.01 in   Overcast
2:15 AM 33.8 °F 25.8 °F 28.4 °F 81% 29.57 in 2.5 mi West 10.4 mph - N/A   Overcast
2:35 AM 33.8 °F 25.8 °F 28.4 °F 81% 29.58 in 3.0 mi West 10.4 mph - N/A   Overcast
2:55 AM 33.8 °F 24.3 °F 28.4 °F 81% 29.59 in 3.0 mi West 13.8 mph - N/A   Overcast
3:15 AM 33.8 °F 23.2 °F 28.4 °F 81% 29.59 in 2.5 mi West 17.3 mph 23.0 mph 0.01 in   Overcast
3:35 AM 33.8 °F 23.5 °F 28.4 °F 81% 29.60 in 5.0 mi West 16.1 mph 23.0 mph 0.01 in   Overcast
3:55 AM 33.8 °F 23.9 °F 26.6 °F 75% 29.61 in 10.0 mi West 15.0 mph 20.7 mph 0.01 in   Overcast
4:15 AM 32.0 °F 21.6 °F 26.6 °F 80% 29.62 in 10.0 mi West 15.0 mph 21.9 mph N/A   Overcast
4:35 AM 32.0 °F 21.2 °F 26.6 °F 80% 29.63 in 7.0 mi West 16.1 mph 21.9 mph N/A   Overcast
4:55 AM 32.0 °F 21.6 °F 24.8 °F 75% 29.65 in 10.0 mi West 15.0 mph 24.2 mph N/A   Overcast
5:15 AM 32.0 °F 21.6 °F 24.8 °F 75% 29.66 in 10.0 mi West 15.0 mph 23.0 mph N/A   Overcast
5:35 AM 30.2 °F 19.3 °F 24.8 °F 80% 29.67 in 10.0 mi West 15.0 mph 23.0 mph N/A   Overcast
5:55 AM 30.2 °F 18.1 °F 23.0 °F 75% 29.69 in 10.0 mi WNW 18.4 mph 27.6 mph N/A   Overcast
6:15 AM 30.2 °F 17.8 °F 23.0 °F 75% 29.70 in 10.0 mi WNW 19.6 mph 24.2 mph N/A   Overcast
6:35 AM 30.2 °F 17.8 °F 23.0 °F 75% 29.72 in 10.0 mi West 19.6 mph 25.3 mph N/A   Overcast
6:55 AM 30.2 °F 18.5 °F 21.2 °F 69% 29.72 in 10.0 mi West 17.3 mph 26.5 mph N/A   Overcast
7:15 AM 30.2 °F 18.5 °F 21.2 °F 69% 29.74 in 10.0 mi West 17.3 mph 24.2 mph N/A   Overcast
7:35 AM 30.2 °F 17.8 °F 21.2 °F 69% 29.74 in 10.0 mi WNW 19.6 mph 24.2 mph N/A   Mostly Cloudy
7:55 AM 30.2 °F 17.1 °F 21.2 °F 69% 29.75 in 9.0 mi West 21.9 mph 27.6 mph N/A   Mostly Cloudy
8:15 AM 30.2 °F 16.8 °F 21.2 °F 69% 29.76 in 10.0 mi West 23.0 mph 31.1 mph N/A   Mostly Cloudy
8:35 AM 32.0 °F 18.9 °F 21.2 °F 64% 29.77 in 10.0 mi WNW 24.2 mph 28.8 mph N/A   Scattered Clouds
8:55 AM 32.0 °F 21.2 °F 21.2 °F 64% 29.78 in 10.0 mi WNW 16.1 mph 24.2 mph N/A   Mostly Cloudy
9:15 AM 33.8 °F 23.2 °F 21.2 °F 60% 29.79 in 10.0 mi WNW 17.3 mph 25.3 mph N/A   Overcast
9:35 AM 32.0 °F 20.8 °F 21.2 °F 64% 29.80 in 10.0 mi West 17.3 mph 25.3 mph N/A   Overcast
9:55 AM 33.8 °F 22.5 °F 21.2 °F 60% 29.81 in 10.0 mi West 19.6 mph 25.3 mph N/A   Overcast
10:15 AM 33.8 °F 22.5 °F 19.4 °F 56% 29.81 in 10.0 mi WNW 19.6 mph 28.8 mph N/A   Overcast
10:35 AM 35.6 °F 24.5 °F 19.4 °F 52% 29.82 in 10.0 mi West 20.7 mph 27.6 mph N/A   Overcast
10:55 AM 35.6 °F 23.7 °F 19.4 °F 52% 29.82 in 10.0 mi WNW 24.2 mph 29.9 mph N/A   Overcast
11:15 AM 35.6 °F 24.2 °F 19.4 °F 52% 29.83 in 10.0 mi WNW 21.9 mph 31.1 mph N/A   Overcast
11:35 AM 35.6 °F 24.8 °F 19.4 °F 52% 29.83 in 10.0 mi WNW 19.6 mph 28.8 mph N/A   Overcast
11:55 AM 35.6 °F 25.9 °F 19.4 °F 52% 29.83 in 10.0 mi WNW 16.1 mph 26.5 mph N/A   Overcast
12:15 PM 35.6 °F 25.2 °F 19.4 °F 52% 29.84 in 10.0 mi WNW 18.4 mph 25.3 mph N/A   Overcast
12:35 PM 37.4 °F 27.5 °F 19.4 °F 48% 29.83 in 10.0 mi WNW 18.4 mph 28.8 mph N/A   Overcast
12:55 PM 37.4 °F 27.2 °F 19.4 °F 48% 29.84 in 10.0 mi West 19.6 mph 32.2 mph N/A   Mostly Cloudy
1:15 PM 37.4 °F 28.2 °F 19.4 °F 48% 29.84 in 10.0 mi West 16.1 mph 19.6 mph N/A   Overcast
1:35 PM 37.4 °F 28.9 °F 19.4 °F 48% 29.85 in 10.0 mi WNW 13.8 mph 21.9 mph N/A   Overcast
1:55 PM 37.4 °F 27.2 °F 17.6 °F 45% 29.85 in 10.0 mi West 19.6 mph 25.3 mph N/A   Mostly Cloudy
2:15 PM 37.4 °F 29.8 °F 19.4 °F 48% 29.85 in 10.0 mi WNW 11.5 mph 23.0 mph N/A   Overcast
2:35 PM 39.2 °F 30.8 °F 19.4 °F 45% 29.85 in 10.0 mi WNW 15.0 mph 21.9 mph N/A   Mostly Cloudy
2:55 PM 39.2 °F 30.5 °F 19.4 °F 45% 29.85 in 10.0 mi WNW 16.1 mph 23.0 mph N/A   Mostly Cloudy
3:15 PM 41.0 °F 32.2 °F 19.4 °F 42% 29.86 in 10.0 mi WNW 18.4 mph 25.3 mph N/A   Mostly Cloudy
3:35 PM 39.2 °F 30.5 °F 19.4 °F 45% 29.86 in 10.0 mi WNW 16.1 mph 27.6 mph N/A   Partly Cloudy
3:55 PM 41.0 °F 33.5 °F 19.4 °F 42% 29.86 in 10.0 mi WNW 13.8 mph 20.7 mph N/A   Partly Cloudy
4:15 PM 41.0 °F 32.5 °F 19.4 °F 42% 29.87 in 10.0 mi West 17.3 mph 23.0 mph N/A   Partly Cloudy
4:35 PM 41.0 °F 32.5 °F 19.4 °F 42% 29.87 in 10.0 mi West 17.3 mph 25.3 mph N/A   Clear
4:55 PM 41.0 °F 32.8 °F 19.4 °F 42% 29.88 in 10.0 mi WNW 16.1 mph 24.2 mph N/A   Clear
5:15 PM 42.8 °F 34.8 °F 17.6 °F 36% 29.88 in 10.0 mi WNW 17.3 mph 24.2 mph N/A   Clear
5:35 PM 41.0 °F 33.1 °F 19.4 °F 42% 29.89 in 10.0 mi WNW 15.0 mph 19.6 mph N/A   Clear
5:55 PM 41.0 °F 32.8 °F 17.6 °F 39% 29.90 in 10.0 mi WNW 16.1 mph 24.2 mph N/A   Clear
6:15 PM 41.0 °F 32.8 °F 17.6 °F 39% 29.90 in 10.0 mi WNW 16.1 mph 23.0 mph N/A   Clear
6:35 PM 39.2 °F 31.6 °F 17.6 °F 42% 29.91 in 10.0 mi West 12.7 mph 18.4 mph N/A   Clear
6:55 PM 39.2 °F 33.6 °F 17.6 °F 42% 29.92 in 10.0 mi WNW 8.1 mph - N/A   Clear
7:15 PM 39.2 °F 34.2 °F 17.6 °F 42% 29.93 in 10.0 mi WNW 6.9 mph - N/A   Clear
7:35 PM 37.4 °F 33.8 °F 17.6 °F 45% 29.93 in 10.0 mi WSW 4.6 mph - N/A   Clear
7:55 PM 37.4 °F 33.8 °F 17.6 °F 45% 29.94 in 10.0 mi West 4.6 mph - N/A   Clear
8:15 PM 35.6 °F 29.2 °F 17.6 °F 48% 29.95 in 10.0 mi West 8.1 mph - N/A   Clear
8:35 PM 35.6 °F 29.9 °F 17.6 °F 48% 29.97 in 10.0 mi WSW 6.9 mph - N/A   Clear
8:55 PM 35.6 °F 29.2 °F 17.6 °F 48% 29.97 in 10.0 mi West 8.1 mph - N/A   Clear
9:15 PM 35.6 °F 30.7 °F 17.6 °F 48% 29.98 in 10.0 mi WSW 5.8 mph - N/A   Clear
9:35 PM 35.6 °F 29.9 °F 17.6 °F 48% 29.98 in 10.0 mi WSW 6.9 mph - N/A   Clear
9:55 PM 35.6 °F 30.7 °F 17.6 °F 48% 29.99 in 10.0 mi WSW 5.8 mph - N/A   Clear
10:15 PM 35.6 °F 29.9 °F 17.6 °F 48% 29.99 in 10.0 mi WSW 6.9 mph - N/A   Clear
10:35 PM 35.6 °F 30.7 °F 17.6 °F 48% 29.99 in 10.0 mi WSW 5.8 mph - N/A   Clear
10:55 PM 35.6 °F 29.2 °F 17.6 °F 48% 30.00 in 10.0 mi West 8.1 mph - N/A   Clear
11:15 PM 35.6 °F 27.5 °F 17.6 °F 48% 30.00 in 10.0 mi West 11.5 mph - N/A   Clear
11:35 PM 35.6 °F 28.0 °F 17.6 °F 48% 30.00 in 10.0 mi West 10.4 mph - N/A   Clear
11:55 PM 33.8 °F 27.0 °F 19.4 °F 56% 30.01 in 10.0 mi West 8.1 mph - N/A   Clear